CW6451 Weather Reports


Display with metric or nautical units.
time (UTC)temp
F
wind
direction
speed
MPH
gust
MPH
rain 1hr
in
rain 24hr
in
rain mn
in
humidity
%
barometer
mb
20260902083043 61 53 2.0 5.0 0.00 0.37 0.00 97 1020.4
20260902081553 60 0 0.0 3.0 0.00 0.37 0.00 97 1020.2
20260902080050 60 38 1.0 4.0 0.00 0.37 0.00 97 1020.0
20260902074545 60 21 3.0 5.0 0.00 0.37 0.00 97 1020.2
20260902073104 60 32 2.0 6.0 0.00 0.37 0.00 97 1020.0
20260902071550 61 34 0.0 3.0 0.00 0.37 0.00 98 1020.1
20260902070051 60 32 2.0 5.0 0.00 0.37 0.00 98 1019.9
20260902064545 60 26 1.0 3.0 0.00 0.37 0.00 98 1019.8
20260902063052 60 28 1.0 4.0 0.00 0.37 0.00 98 1019.9
20260902061559 60 31 1.0 4.0 0.00 0.37 0.00 98 1019.8
20260902060054 60 37 1.0 3.0 0.00 0.37 0.00 99 1019.8
20260902054553 59 34 1.0 4.0 0.00 0.37 0.00 99 1019.7
20260902053047 59 53 0.0 3.0 0.00 0.37 0.00 99 1019.5
20260902051555 58 0 0.0 5.0 0.00 0.37 0.00 98 1019.6
20260902050054 58 57 0.0 3.0 0.00 0.37 0.00 98 1019.5
20260902044550 59 0 0.0 3.0 0.00 0.37 0.00 98 1019.4
20260902043051 59 61 1.0 2.0 0.00 0.37 0.00 98 1019.5
20260902041602 60 0 0.0 1.0 0.00 0.37 0.00 98 1019.6
20260902040046 60 0 0.0 2.0 0.00 0.37 0.00 98 1019.5
20260902034550 60 0 0.0 2.0 0.00 0.37 0.37 98 1019.5
20260902033044 60 0 0.0 1.0 0.00 0.37 0.37 98 1019.3
20260902031614 60 0 0.0 2.0 0.00 0.37 0.37 98 1019.3
20260902030056 60 0 0.0 3.0 0.00 0.37 0.37 98 1019.3
20260902024553 60 0 0.0 3.0 0.00 0.37 0.37 98 1019.3
20260902023056 60 29 1.0 4.0 0.00 0.37 0.37 98 1019.3
20260902021549 60 71 0.0 2.0 0.00 0.37 0.37 98 1019.1
20260902020047 60 31 1.0 4.0 0.00 0.37 0.37 98 1019.1
20260902014544 60 111 0.0 1.0 0.00 0.37 0.37 98 1018.5
20260902013043 60 0 0.0 2.0 0.00 0.37 0.37 98 1018.7
20260902011550 60 0 0.0 4.0 0.00 0.37 0.37 98 1018.8
20260902010045 60 0 0.0 2.0 0.01 0.37 0.37 98 1018.7
20260902004549 60 0 0.0 4.0 0.01 0.37 0.37 98 1018.9
20260902003052 60 0 0.0 3.0 0.01 0.37 0.37 98 1018.7
20260902001556 60 0 0.0 4.0 0.01 0.37 0.37 98 1018.8
20260902000043 60 96 0.0 4.0 0.00 0.36 0.36 98 1018.5
20260901234544 60 0 1.0 5.0 0.00 0.36 0.36 98 1018.3
20260901233059 60 0 0.0 7.0 0.00 0.36 0.36 98 1018.3
20260901231544 60 168 1.0 5.0 0.00 0.36 0.36 99 1018.5
20260901230057 59 0 1.0 10.0 0.00 0.36 0.36 98 1018.4
20260901224552 59 0 1.0 7.0 0.00 0.36 0.36 98 1018.4
20260901223054 59 79 1.0 7.0 0.00 0.36 0.36 98 1018.2
20260901221554 59 0 1.0 7.0 0.00 0.36 0.36 98 1018.2
20260901220047 59 69 1.0 9.0 0.00 0.36 0.36 98 1018.4
20260901214550 59 57 1.0 7.0 0.01 0.36 0.36 98 1018.5
20260901213110 59 172 1.0 7.0 0.01 0.36 0.36 97 1018.6
20260901211550 59 98 1.0 7.0 0.01 0.36 0.36 97 1018.4
20260901210045 60 162 0.0 7.0 0.01 0.36 0.36 97 1018.2
20260901204553 61 160 1.0 8.0 0.00 0.35 0.35 98 1018.1
20260901203115 62 154 1.0 9.0 0.01 0.35 0.35 98 1017.8
20260901201550 62 117 1.0 6.0 0.02 0.35 0.35 98 1017.8
20260901200044 62 187 1.0 7.0 0.03 0.35 0.35 98 1017.8
20260901194544 62 184 1.0 7.0 0.03 0.35 0.35 98 1017.6
20260901193044 62 0 1.0 7.0 0.02 0.34 0.34 97 1017.6
20260901191556 62 0 0.0 4.0 0.03 0.33 0.33 97 1017.4
20260901190049 62 0 0.0 6.0 0.02 0.32 0.32 97 1017.3
20260901184544 62 142 1.0 9.0 0.02 0.32 0.32 96 1017.1
20260901183052 62 165 1.0 8.0 0.02 0.32 0.32 96 1016.9
20260901181544 62 162 2.0 7.0 0.00 0.30 0.30 94 1016.7
20260901180050 62 0 1.0 8.0 0.00 0.30 0.30 94 1017.5
20260901174547 62 173 2.0 9.0 0.00 0.30 0.30 95 1017.2
20260901173049 62 132 2.0 9.0 0.00 0.30 0.30 96 1017.1
20260901171551 62 166 1.0 9.0 0.00 0.30 0.30 98 1017.0
20260901170047 61 180 1.0 9.0 0.00 0.30 0.30 98 1017.2
20260901164557 60 201 1.0 6.0 0.00 0.30 0.30 98 1017.4
20260901163050 60 169 1.0 6.0 0.00 0.30 0.30 97 1017.7
20260901161550 60 169 2.0 9.0 0.01 0.30 0.30 97 1018.0
20260901160058 61 175 3.0 9.0 0.01 0.30 0.30 98 1018.3
20260901154547 62 151 1.0 6.0 0.02 0.30 0.30 98 1018.4
20260901153049 63 150 2.0 9.0 0.02 0.29 0.29 97 1018.1
20260901151554 63 0 0.0 4.0 0.09 0.29 0.29 97 1018.1
20260901150049 65 221 1.0 5.0 0.11 0.29 0.29 98 1017.9
20260901144546 66 163 1.0 6.0 0.14 0.28 0.28 97 1018.1
20260901143046 67 0 0.0 3.0 0.15 0.27 0.27 98 1018.2
20260901141551 67 83 1.0 3.0 0.10 0.19 0.19 98 1018.4
20260901140048 67 0 0.0 3.0 0.15 0.18 0.18 97 1017.6
20260901134545 67 0 0.0 3.0 0.13 0.13 0.13 97 1018.0
20260901133043 68 0 0.0 3.0 0.12 0.12 0.12 96 1017.7
20260901131547 68 0 0.0 3.0 0.09 0.09 0.09 94 1017.6
20260901130047 68 157 0.0 4.0 0.03 0.03 0.03 93 1017.6
20260901124545 68 0 0.0 4.0 0.00 0.00 0.00 92 1017.8
20260901123052 69 171 0.0 3.0 0.00 0.00 0.00 92 1017.7
20260901121547 69 148 1.0 6.0 0.00 0.00 0.00 92 1017.7
20260901120050 68 0 0.0 4.0 0.00 0.00 0.00 93 1017.8
20260901114543 68 0 2.0 4.0 0.00 0.00 0.00 93 1017.8
20260901113050 68 146 0.0 4.0 0.00 0.00 0.00 94 1017.8
20260901111546 68 0 0.0 4.0 0.00 0.00 0.00 94 1017.7
20260901110046 68 0 0.0 2.0 0.00 0.00 0.00 94 1017.7
20260901104551 67 0 0.0 3.0 0.00 0.00 0.00 94 1017.4
20260901103049 67 0 0.0 2.0 0.00 0.00 0.00 95 1017.4
20260901101606 68 0 0.0 1.0 0.00 0.00 0.00 95 1017.4
20260901100053 68 0 0.0 1.0 0.00 0.00 0.00 94 1017.3
20260901094549 68 0 0.0 1.0 0.00 0.00 0.00 95 1017.3
20260901093048 68 0 0.0 1.0 0.00 0.00 0.00 94 1017.2
20260901091545 68 0 0.0 3.0 0.00 0.00 0.00 94 1017.2
20260901090055 68 0 0.0 4.0 0.00 0.00 0.00 94 1017.3
20260901084548 68 0 0.0 1.0 0.00 0.00 0.00 94 1017.7